| time (UTC) | temp F | wind direction | speed knots | gust knots | rain 1hr in | rain 24hr in | rain mn in | humidity % | barometer mb |
| 20260505065624 | 50 | 204 | 12.2 | 18.2 | 0.00 | 0.00 | 0.00 | 82 | 1011.5 |
| 20260505064624 | 50 | 205 | 13.0 | 18.2 | 0.00 | 0.00 | 0.00 | 82 | 1011.7 |
| 20260505063602 | 50 | 206 | 13.9 | 20.9 | 0.00 | 0.00 | 0.00 | 81 | 1011.7 |
| 20260505061603 | 50 | 202 | 13.9 | 19.1 | 0.00 | 0.00 | 0.00 | 80 | 1011.6 |
| 20260505060602 | 50 | 202 | 13.0 | 18.2 | 0.00 | 0.00 | 0.00 | 80 | 1011.7 |
| 20260505055603 | 50 | 212 | 13.0 | 18.2 | 0.00 | 0.00 | 0.00 | 80 | 1011.6 |
| 20260505054603 | 50 | 206 | 13.0 | 20.0 | 0.00 | 0.00 | 0.00 | 80 | 1011.7 |
| 20260505053603 | 50 | 196 | 13.0 | 18.2 | 0.00 | 0.00 | 0.00 | 79 | 1011.6 |
| 20260505052602 | 51 | 200 | 12.2 | 17.4 | 0.00 | 0.00 | 0.00 | 79 | 1011.7 |
| 20260505051624 | 51 | 204 | 13.0 | 18.2 | 0.00 | 0.00 | 0.00 | 78 | 1011.7 |
| 20260505050623 | 51 | 199 | 12.2 | 19.1 | 0.00 | 0.00 | 0.00 | 77 | 1011.8 |
| 20260505040602 | 52 | 204 | 13.9 | 20.9 | 0.00 | 0.00 | 0.00 | 73 | 1012.1 |
| 20260505035603 | 52 | 198 | 16.5 | 20.9 | 0.00 | 0.00 | 0.00 | 73 | 1011.9 |
| 20260505034602 | 52 | 198 | 14.8 | 24.3 | 0.00 | 0.00 | 0.00 | 72 | 1011.9 |
| 20260505033603 | 52 | 196 | 13.9 | 19.1 | 0.00 | 0.00 | 0.00 | 71 | 1011.8 |
| 20260505032602 | 53 | 193 | 14.8 | 21.7 | 0.00 | 0.00 | 0.00 | 70 | 1011.8 |
| 20260505031603 | 53 | 194 | 13.9 | 24.3 | 0.00 | 0.00 | 0.00 | 69 | 1011.8 |
| 20260505025624 | 53 | 201 | 14.8 | 22.6 | 0.00 | 0.00 | 0.00 | 68 | 1012.0 |
| 20260505024602 | 53 | 199 | 13.9 | 21.7 | 0.00 | 0.00 | 0.00 | 67 | 1012.0 |
| 20260505023603 | 54 | 199 | 13.9 | 20.0 | 0.00 | 0.00 | 0.00 | 66 | 1012.0 |
| 20260505022602 | 54 | 197 | 14.8 | 20.9 | 0.00 | 0.00 | 0.00 | 65 | 1011.9 |
| 20260505021603 | 54 | 203 | 13.9 | 20.9 | 0.00 | 0.00 | 0.00 | 63 | 1012.0 |
| 20260505015603 | 55 | 200 | 15.6 | 24.3 | 0.00 | 0.00 | 0.00 | 61 | 1011.9 |
| 20260505014603 | 55 | 194 | 13.0 | 20.0 | 0.00 | 0.00 | 0.00 | 60 | 1011.9 |
| 20260505013603 | 55 | 203 | 13.9 | 20.9 | 0.00 | 0.00 | 0.00 | 59 | 1011.6 |
| 20260505012623 | 56 | 203 | 13.9 | 19.1 | 0.00 | 0.00 | 0.00 | 57 | 1011.8 |
| 20260505011603 | 56 | 200 | 13.0 | 17.4 | 0.00 | 0.00 | 0.00 | 56 | 1011.5 |
| 20260505010602 | 56 | 201 | 13.0 | 20.0 | 0.00 | 0.00 | 0.00 | 55 | 1011.3 |
| 20260505005603 | 57 | 208 | 13.9 | 22.6 | 0.00 | 0.00 | 0.00 | 54 | 1011.3 |
| 20260505004602 | 57 | 208 | 14.8 | 20.9 | 0.00 | 0.00 | 0.00 | 53 | 1011.1 |
| 20260505003603 | 57 | 207 | 20.0 | 27.8 | 0.00 | 0.00 | 0.00 | 53 | 1010.8 |
| 20260505002603 | 57 | 201 | 16.5 | 28.7 | 0.00 | 0.00 | 0.00 | 53 | 1010.6 |
| 20260505001603 | 57 | 196 | 15.6 | 26.1 | 0.00 | 0.00 | 0.00 | 53 | 1010.5 |
| 20260504235602 | 59 | 189 | 16.5 | 28.7 | 0.00 | 0.00 | 0.00 | 51 | 1010.3 |
| 20260504234624 | 60 | 187 | 18.2 | 26.9 | 0.00 | 0.00 | 0.00 | 49 | 1010.0 |
| 20260504233623 | 61 | 182 | 16.5 | 26.1 | 0.00 | 0.00 | 0.00 | 47 | 1009.8 |
| 20260504232603 | 62 | 201 | 16.5 | 25.2 | 0.00 | 0.00 | 0.00 | 45 | 1009.7 |
| 20260504231602 | 62 | 207 | 17.4 | 31.3 | 0.00 | 0.00 | 0.00 | 44 | 1009.4 |
| 20260504230603 | 63 | 208 | 18.2 | 31.3 | 0.00 | 0.00 | 0.00 | 44 | 1009.0 |
| 20260504225623 | 63 | 209 | 18.2 | 26.1 | 0.00 | 0.00 | 0.00 | 43 | 1009.0 |
| 20260504224603 | 64 | 200 | 19.1 | 33.0 | 0.00 | 0.00 | 0.00 | 42 | 1008.8 |
| 20260504223602 | 65 | 207 | 18.2 | 29.5 | 0.00 | 0.00 | 0.00 | 41 | 1008.7 |
| 20260504221603 | 65 | 213 | 17.4 | 31.3 | 0.00 | 0.00 | 0.00 | 40 | 1008.7 |
| 20260504220602 | 66 | 215 | 18.2 | 29.5 | 0.00 | 0.00 | 0.00 | 38 | 1008.4 |
| 20260504215603 | 67 | 197 | 17.4 | 26.9 | 0.00 | 0.00 | 0.00 | 37 | 1008.5 |
| 20260504214602 | 68 | 205 | 19.1 | 28.7 | 0.00 | 0.00 | 0.00 | 36 | 1008.5 |
| 20260504213603 | 68 | 201 | 15.6 | 25.2 | 0.00 | 0.00 | 0.00 | 36 | 1008.6 |
| 20260504212603 | 68 | 193 | 13.9 | 26.9 | 0.00 | 0.00 | 0.00 | 35 | 1008.5 |
| 20260504211603 | 69 | 227 | 17.4 | 24.3 | 0.00 | 0.00 | 0.00 | 31 | 1008.6 |
| 20260504205603 | 70 | 207 | 11.3 | 23.5 | 0.00 | 0.00 | 0.00 | 30 | 1008.5 |
| 20260504204603 | 71 | 229 | 14.8 | 20.9 | 0.00 | 0.00 | 0.00 | 30 | 1008.4 |
| 20260504203603 | 70 | 233 | 11.3 | 23.5 | 0.00 | 0.00 | 0.00 | 30 | 1008.6 |
| 20260504202623 | 70 | 206 | 11.3 | 18.2 | 0.00 | 0.00 | 0.00 | 29 | 1008.5 |
| 20260504201603 | 70 | 234 | 14.8 | 25.2 | 0.00 | 0.00 | 0.00 | 29 | 1008.6 |
| 20260504200602 | 71 | 253 | 13.0 | 24.3 | 0.00 | 0.00 | 0.00 | 29 | 1008.6 |
| 20260504195603 | 70 | 227 | 15.6 | 26.1 | 0.00 | 0.00 | 0.00 | 29 | 1008.7 |
| 20260504194602 | 70 | 212 | 15.6 | 22.6 | 0.00 | 0.00 | 0.00 | 29 | 1008.7 |
| 20260504193603 | 70 | 217 | 16.5 | 26.9 | 0.00 | 0.00 | 0.00 | 29 | 1008.6 |
| 20260504192603 | 70 | 225 | 13.9 | 25.2 | 0.00 | 0.00 | 0.00 | 28 | 1008.7 |
| 20260504191603 | 70 | 227 | 20.0 | 29.5 | 0.00 | 0.00 | 0.00 | 28 | 1008.7 |
| 20260504190602 | 70 | 246 | 13.0 | 26.1 | 0.00 | 0.00 | 0.00 | 29 | 1008.7 |
| 20260504185603 | 70 | 231 | 19.1 | 29.5 | 0.00 | 0.00 | 0.00 | 28 | 1008.9 |
| 20260504184602 | 70 | 233 | 18.2 | 26.1 | 0.00 | 0.00 | 0.00 | 28 | 1008.9 |
| 20260504183603 | 69 | 228 | 13.9 | 32.2 | 0.00 | 0.00 | 0.00 | 29 | 1009.1 |
| 20260504182603 | 69 | 237 | 15.6 | 29.5 | 0.00 | 0.00 | 0.00 | 29 | 1009.1 |
| 20260504181603 | 69 | 257 | 14.8 | 23.5 | 0.00 | 0.00 | 0.00 | 29 | 1009.2 |
| 20260504175603 | 69 | 233 | 13.9 | 31.3 | 0.00 | 0.00 | 0.00 | 29 | 1009.4 |
| 20260504174603 | 69 | 251 | 13.9 | 30.4 | 0.00 | 0.00 | 0.00 | 29 | 1009.4 |
| 20260504173623 | 69 | 234 | 22.6 | 30.4 | 0.00 | 0.00 | 0.00 | 29 | 1009.4 |
| 20260504172602 | 68 | 239 | 14.8 | 29.5 | 0.00 | 0.00 | 0.00 | 29 | 1009.3 |
| 20260504171603 | 68 | 230 | 22.6 | 32.2 | 0.00 | 0.00 | 0.00 | 28 | 1009.4 |
| 20260504170602 | 68 | 226 | 13.9 | 33.9 | 0.00 | 0.00 | 0.00 | 30 | 1009.5 |
| 20260504150603 | 64 | 261 | 16.5 | 27.8 | 0.00 | 0.00 | 0.00 | 35 | 1010.9 |
| 20260504140624 | 62 | 252 | 13.0 | 21.7 | 0.00 | 0.00 | 0.00 | 38 | 1011.5 |
| 20260504130603 | 57 | 246 | 10.4 | 19.1 | 0.00 | 0.00 | 0.00 | 45 | 1012.1 |
| 20260504110603 | 48 | 230 | 11.3 | 15.6 | 0.00 | 0.00 | 0.00 | 52 | 1012.1 |
| 20260504100603 | 46 | 234 | 13.0 | 16.5 | 0.00 | 0.00 | 0.00 | 53 | 1012.0 |
| 20260504081623 | 46 | 239 | 10.4 | 13.9 | 0.00 | 0.00 | 0.00 | 51 | 1012.0 |
| 20260504080603 | 46 | 238 | 10.4 | 13.0 | 0.00 | 0.00 | 0.00 | 50 | 1012.0 |